Other Public Products
Issued by NWS Grand Forks, ND

Home | Current Version | Previous Version | Text Only | Print | Product List | Glossary On
Versions: 1 2 3 4 5 6 7 8 9 10 11 12 13 14 15 16 17 18 19 20 21 22 23 24 25 26 27 28 29 30 31 32 33 34 35 36 37 38 39 40 41 42 43 44 45 46 47 48 49 50
000
FPUS83 KFGF 031631
OPUFGF
PRAIRIE TO PINES WEATHER ROUNDUP
NATIONAL WEATHER SERVICE EASTERN NORTH DAKOTA/GRAND FORKS ND
1000 AM CST SAT DEC 03 2016

 **SATELLITE DATA USED TO AUGMENT SKY COVER AT AUTOMATED STATIONS**
 *****  WEATHER ACROSS EASTERN NORTH DAKOTA  *****

CITY           SKY/WX    TMP DP  RH WIND       PRES   REMARKS
GRAND FORKS    CLOUDY    28  22  78 S16       30.14F WCI  16
GRAND FORKS AF CLOUDY    28  22  80 S15       30.13F WCI  16
GRAND CITY NWS   N/A     28 N/A N/A S13         N/A  WCI  18
BUXTON           N/A     43  41  93 S14         N/A
DEVILS LAKE    CLOUDY    27  25  92 S17       30.04F WCI  14
FARGO          CLOUDY    28  19  69 S17       30.19F WCI  16
WAHPETON ARPT  PTSUNNY   28  21  74 SE12      30.19F WCI  18
$$

 *****  WEATHER ACROSS CENTRAL AND WESTERN NORTH DAKOTA  *****

CITY           SKY/WX    TMP DP  RH WIND       PRES   REMARKS
JAMESTOWN      CLOUDY    29  26  89 S18G25    30.06F WCI  16
BISMARCK       CLOUDY    23  23 100 S15       29.98F FOG     WCI  10
MINOT          FAIR      24  20  84 SE10G21   29.88F WCI  14
MINOT AFB      FAIR      24  20  83 S13       29.87F WCI  12
GARRISON         N/A     25  22  88 S18       29.90F WCI  11
WILLISTON      CLOUDY    23  18  81 S6        29.83S WCI  16
DICKINSON      SUNNY     17  14  88 S12       29.83F WCI   4
HETTINGER      SUNNY     17  15  92 S5        29.90S WCI  10
$$

 *****  OTHER OBSERVATIONS NORTHEAST NORTH DAKOTA  *****

CITY           SKY/WX    TMP DP  RH WIND       PRES   REMARKS
WALHALLA         N/A     27  27 100 S14       30.08S WCI  15
LANGDON        CLOUDY    27  27 100 S20G26    30.03F FOG     WCI  13
CAVALIER         N/A     28  27  93 S21G28    30.09F WCI  15
GRAFTON        CLOUDY    28  25  86 S21       30.14F WCI  15
CANDO          CLOUDY    28  28 100 S22       30.03F WCI  15
FORT TOTTEN      N/A     27  27 100 S15       29.95S WCI  15
ROLLA          CLOUDY    27  27 100 S15G22    29.97F WCI  15
RUGBY            N/A     27  27 100 S20G28    29.94F FOG     WCI  13
 ***** THE ABOVE OBSERVATIONS ARE NON NWS ARE NOT QUALITY
        CONTROLLED AND MAY MIS-REPORT RAIN FOR SNOW...
$$

 *****  OTHER OBSERVATIONS SOUTHEAST NORTH DAKOTA *****

CITY           SKY/WX    TMP DP  RH WIND       PRES   REMARKS
COOPERSTOWN    CLOUDY    28  27  93 S17       30.08F WCI  16
VALLEY CITY    CLOUDY    28  28 100 S14       30.11F WCI  17
OAKES          NOT AVBL
GWINNER        FAIR      30  27  86 SE15      30.13F WCI  19
SHEYENNE NWR     N/A     27  21  78 SE10      29.95S WCI  17
BUFFALO          N/A     28  22  81 NE12        N/A  WCI  17
WYNDMERE         N/A     28  21  74 SE12        N/A  WCI  18
 ***** THE ABOVE OBSERVATIONS ARE NON NWS ARE NOT QUALITY
       CONTROLLED AND MAY MIS-REPORT RAIN FOR SNOW...
$$

  *****  WEATHER ACROSS NORTHERN MINNESOTA  *****

CITY           SKY/WX    TMP DP  RH WIND       PRES   REMARKS
FLAG ISLAND    CLOUDY    28  21  74 S16       30.16S WCI  17
WARROAD        CLOUDY    27  21  80 S9        30.17F WCI  17
ROSEAU         CLOUDY    27  21  80 S18       30.16F WCI  13
HALLOCK        CLOUDY    28  25  86 S20       30.13F WCI  15
THF RVR FALLS  CLOUDY    24  20  84 S15G22    30.19S WCI  11
HALSTAD          N/A     27  21  78 S15         N/A  WCI  15
FOSSTON        CLOUDY    23  18  80 S16       30.19F WCI  10
BAUDETTE       CLOUDY    26  21  81 S7        30.18F WCI  18
WASKISH        CLOUDY    25  19  80 S6        30.20S WCI  18
CROOKSTON      CLOUDY    27  21  80 S16       30.18F WCI  14
$$
  *****  WEATHER ACROSS CENTRAL AND WEST MINNESOTA  *****

CITY           SKY/WX    TMP DP  RH WIND       PRES   REMARKS
BEMIDJI        CLOUDY    23  18  80 S10       30.19F WCI  13
PARK RAPIDS    CLOUDY    24  15  68 S8        30.21S WCI  15
WADENA         CLOUDY    25  18  74 S8        30.21F WCI  16
DETROIT LAKES  CLOUDY    27  21  80 S12       30.20S WCI  16
MOORHEAD       CLOUDY    27  19  74 S10       30.20F WCI  17
FERGUS FALLS   CLOUDY    27  19  74 S12       30.24F WCI  16
ELBOW LAKE     CLOUDY    27  20  75 E10       30.21F WCI  17
MORRIS MN      FAIR      28  21  74 SE13      30.20F WCI  18
STAPLES        CLOUDY    23  18  80 S9G16     30.23F WCI  13
WHEATON        CLOUDY   N/A N/A N/A SE15      30.20F
$$
  *****  WEATHER ELSEWHERE ACROSS MINNESOTA  *****

CITY           SKY/WX    TMP DP  RH WIND       PRES   REMARKS
DULUTH         FLURRIES  27  22  81 NW5       30.23S WCI  22
INTRNTL FALLS  CLOUDY    25  19  78 S3        30.22S
ELY            CLOUDY    23  23 100 CALM      30.24S
CLOQUET        CLOUDY    27  23  86 CALM      30.25R
BRAINERD       CLOUDY    26  18  71 S6        30.25S WCI  19
HIBBING        CLOUDY    25  20  81 S3        30.23S
ALEXANDRIA     CLOUDY    25  19  78 S7        30.22F WCI  17
SAINT CLOUD    CLOUDY    27  19  72 S9        30.27F WCI  18
MINNEAPOLIS    FLURRIES  29  19  66 SW5       30.30S WCI  24
$$

  *****  WEATHER ACROSS SOUTH DAKOTA  *****

CITY           SKY/WX    TMP DP  RH WIND       PRES   REMARKS
SIOUX FALLS    PTSUNNY   31  28  89 S12       30.19S WCI  22
BROOKINGS      FAIR      29  26  89 SE14      30.15F WCI  18
WATERTOWN      FAIR      27  24  89 S15       30.13F WCI  15
HURON          CLOUDY    29  27  92 S13       30.13S WCI  19
SISSETON         N/A     27  22  81 S16       30.16F WCI  15
ABERDEEN       PTSUNNY   29  24  82 S15       30.11F WCI  18
MITCHELL       CLOUDY    30  28  92 S10       30.15S WCI  21
PIERRE         CLOUDY    30  27  88 SE15      29.98F WCI  19
MOBRIDGE       MOSUNNY   29  24  82 S13       29.97S WCI  19
RAPID CITY     SUNNY     25  20  81 CALM      29.88F
$$

  *****  SOME WEATHER IN NEARBY STATES *****

CITY           SKY/WX    TMP DP  RH WIND       PRES   REMARKS
GLASGOW MT     CLOUDY    32  26  78 SW8       29.74F WCI  25
GREAT FALLS MT CLEAR     32  23  69 SW16      29.85R WCI  21
CHEYENNE WY    MOSUNNY   30   2  30 W21G29    29.97R WCI  17
SCOTTSBLUFF NE SUNNY     28  15  58 SE3       30.00S
OMAHA NE       CLOUDY    31  27  85 S8        30.29R WCI  23
DES MOINES IA  FAIR      39  30  70 S6        30.32R
DAVENPORT IA   CLOUDY    33  24  69 CALM      30.36R
CHICAGO IL     CLOUDY    32  22  66 N5        30.33S
EAU CLAIRE WI  CLOUDY    29  25  85 W6        30.30R WCI  23
LA CROSSE WI   CLOUDY    33  23  66 CALM      30.31F
$$

  *****  SOME NATIONAL WEATHER *****

CITY           SKY/WX    TMP DP  RH WIND       PRES   REMARKS
LA GUARDIA NY  PTSUNNY   47  28  47 NW24G31   30.02F
RALEIGH NC     FAIR      48  27  44 N6        30.30F
ATLANTA GA     PTSUNNY   50  32  50 NW5       30.27S
NEW ORLEANS LA CLOUDY    60  49  66 E12G22    30.15R
OKLAHOMA CITY  LGT RAIN  45  41  86 E8        30.23R FOG
ALBUQUERQUE NM PTSUNNY   35  31  85 N8        30.12R
SALT LAKE CITY CLOUDY    29  19  66 SE9       30.30R WCI  20
LOS ANGELES CA SUNNY     50  25  37 NE3       30.12R
BOISE ID       CLOUDY    34  26  72 CALM      30.26R
SEATTLE WA     MOCLDY    45  41  86 S9        30.29S
$$

*** WEATHER ACROSS MANITOBA...SASKATCHEWAN AND ONTARIO ***
                ***ONTARIO***

CITY           SKY/WX    TMP DP  RH WIND       PRES   REMARKS
GERALDTON      FLURRIES  23  18  80 N3        30.24R
THUNDER BAY    PTSUNNY   30  23  74 NW6       30.27S WCI  24
SIOUX LOOKOUT  FRZ DRZL  21  18  86 S5        30.21S WCI  15
TORONTO        MOSUNNY   41  27  56 NW13G22   30.17S
BIG TROUT LK   LGT SNOW  14  12  92 S6        30.23S WCI   5
PICKLE LAKE    FLURRIES  19  18  93 SE6       30.21S WCI  11
DRYDEN         FLURRIES  21  19  93 S7        30.19S WCI  13
KENORA         FLURRIES  25  23  93 SE6       30.15F WCI  18
$$
                *** MANITOBA***

CITY           SKY/WX    TMP DP  RH WIND       PRES   REMARKS
BRANDON        MOSUNNY   27  23  86 SE8       29.93S WCI  18
DAUPHIN        CLOUDY    25  23  93 E7        29.89F WCI  17
ISLAND LAKE    MOCLDY     7   3  85 S6        30.17S WCI  -3
PILOT MOUND      N/A     25  25 100 S22G29      N/A  WCI  10
THE PAS        CLOUDY    28  23  80 SE13      29.88F WCI  18
THOMPSON       FLURRIES  18  16  93 E3        30.06S
WINNIPEG       FLURRIES  27  23  86 S18G25    30.09F WCI  13
LYNN LAKE      CLOUDY    21  21 100 SE8       29.89F WCI  12
CHURCHILL      LGT SNOW   1  -2  85 S8        30.12S WCI -12
GILLAM         LGT SNOW  10   7  85 S6        30.15F WCI   1
$$
                ***SASKATCHEWAN***

CITY           SKY/WX    TMP DP  RH WIND       PRES   REMARKS
ESTEVAN        PTSUNNY   27  19  74 S12       29.79F WCI  16
KINDERSLEY     CLOUDY    21  19  93 NW7       29.67R FOG     WCI  13
LLOYDMINSTER   CLOUDY    21  21 100 W6        29.69R FOG     WCI  14
PRINCE ALBERT  CLOUDY    28  25  86 E7        29.71S WCI  21
REGINA         FLURRIES  23  21  93 SE10      29.68F WCI  12
YORKTON        PTCLDY    25  23  93 SE13G20   29.77F WC1F1C2F2C3F3C4F4C5F5C6F6C7F7C8F8C9F9CaFaCbFbCcFcCdFdCe!


USA.gov is the U.S. government's official web portal to all federal, state and local government web resources and services.